Weather in Abha

Saudi Arabia     18°17′32″N   42°46′04″E
temp.,
°C
wind,
m/s
gust,
m/s
humid.,
%
clouds,
%
prec.,
mm/h
press.,
hPa
HPBL,
m
6 may, thu
thu600:00+21ene592399 0.1 1014260
03:00+19se2240100 0.1 101322
06:00+19s1151100 0.0 101511
09:00+21n2234100 0.0 1016456
12:00+24nne2421100 0.0 10143133
15:00+23se1425100 0.0 10142444
18:00+24ese4523100 0.1 1012781
21:00+21s2445100 0.3 1015231
7 may, fri
fri700:00+20wnw1145100 0.0 101513
03:00+19ssw1144100 0.1 101411
06:00+18s2261100 0.1 101630
09:00+22s343993 0.1 10171142
12:00+25sse3421100 0.0 10143261
15:00+21w8546100 0.6 1014862
18:00+22nnw332796 1.0 1014493
21:00+20s3445100 1.2 1016259
8 may, sat
sat800:00+20wsw224596 0.0 101666
03:00+19ssw345587 0.0 1015131
06:00+18sw235933 0.0 101631
09:00+22sw223274 0.0 1017951
12:00+25sw442797 0.0 10142768
15:00+24wsw6439100 0.0 10131743
18:00+22sw544698 0.1 1013687
21:00+21nw345099 0.2 1015455
9 may, sun
sun900:00+20nw235181 0.2 101585
03:00+19nne225298 0.3 101430
06:00+19ne225059 0.0 101515
09:00+24ene542599 0.0 10151849
12:00+26ese441899 0.0 10133329
15:00+26sw4530100 0.0 10112671
18:00+24wsw4339100 0.0 1012953
21:00+22wsw2246100 0.0 1014451
10 may, mon
mon1000:00+22ssw2248100 0.0 1013111
03:00+21n344743 0.0 1013106
06:00+20n234587 0.0 101445
09:00+24ene562420 0.0 10151427
12:00+26ese231889 0.0 10123319
15:00+25sw753775 0.0 10111835
18:00+24sw5445100 0.0 1012830
21:00+22s555797 0.4 1014475